Location: Arboyeti
(42.1122°N, 44.6017°E)
Time: 21:22:02
(UTC+00:00)

Cosmos 2026 Rocket - Pass Details

Date: 19 April 2021
Orbit: 939 x 1001 km, 82.9° (Epoch: 17 May)

Event Time Altitude Azimuth Distance (km) Brightness Sun altitude
Rises 16:36:33 0° 356° (N) 3,611 7.4 -9.4°
Reaches altitude 10° 16:39:07 10° 2° (N) 2,665 6.6 -9.8°
Maximum altitude 16:45:03 52° 78° (ENE) 1,159 4.1 -10.8°
Drops below altitude 10° 16:50:59 10° 155° (SSE) 2,675 5.8 -11.8°
Enters shadow 16:51:43 - 156° (SSE) 2,941 6.1 -11.9°
